When you browse on this site, cookies collect data to enhance your experience and personalize the content and advertising you see.
Visit our Privacy Policy to learn more. By continuing to use the site, you agree to this use of cookies and data.
  • In France
  • List of Countries
  • For 7 days
  • Water Temperature
  • Weather Map
  • Weather Widgets
  • user-avatar
    Login

    Hourly Weather Ganja

    Today, 21 August, Wednesday

    Time Temperature Precipitation Wind Pressure Humidity
    00:00 +26°C° 0 mm 3 mps 727 mmHg 30%
    01:00 +25°C° 0 mm 2 mps 727 mmHg 32%
    02:00 +24°C° 0 mm 2 mps 727 mmHg 35%
    03:00 +23°C° 0 mm 1 mps 727 mmHg 38%
    04:00 +23°C° 0 mm 1 mps 727 mmHg 38%
    05:00 +23°C° 0 mm 1 mps 727 mmHg 39%
    06:00 +24°C° 0 mm 1 mps 727 mmHg 39%
    07:00 +26°C° 0 mm 1 mps 727 mmHg 35%
    08:00 +28°C° 0 mm 1 mps 727 mmHg 31%
    09:00 +30°C° 0 mm 2 mps 727 mmHg 27%
    10:00 +31°C° 0 mm 2 mps 727 mmHg 24%
    11:00 +34°C° 0 mm 3 mps 727 mmHg 22%
    12:00 +36°C° 0 mm 4 mps 726 mmHg 20%
    13:00 +37°C° 0 mm 4 mps 726 mmHg 19%
    14:00 +37°C° 0 mm 4 mps 726 mmHg 17%
    15:00 +39°C° 0 mm 5 mps 725 mmHg 16%
    16:00 +37°C° 0 mm 5 mps 725 mmHg 18%
    17:00 +36°C° 0 mm 4 mps 725 mmHg 20%
    18:00 +35°C° 0 mm 4 mps 724 mmHg 22%
    19:00 +33°C° 0 mm 4 mps 725 mmHg 23%
    20:00 +30°C° 0 mm 3 mps 725 mmHg 25%
    21:00 +29°C° 0 mm 3 mps 725 mmHg 27%
    22:00 +28°C° 0 mm 3 mps 725 mmHg 29%
    23:00 +27°C° 0 mm 3 mps 725 mmHg 30%

    Tomorrow, 22 August, Thursday

    Time Temperature Precipitation Wind Pressure Humidity
    00:00 +26°C° 0 mm 3 mps 725 mmHg 32%
    01:00 +25°C° 0 mm 2 mps 725 mmHg 34%
    02:00 +24°C° 0 mm 2 mps 724 mmHg 36%
    03:00 +24°C° 0 mm 1 mps 724 mmHg 38%
    04:00 +24°C° 0 mm 1 mps 724 mmHg 38%
    05:00 +24°C° 0 mm 1 mps 724 mmHg 39%
    06:00 +24°C° 0 mm 1 mps 724 mmHg 40%
    07:00 +26°C° 0 mm 1 mps 724 mmHg 36%
    08:00 +28°C° 0 mm 2 mps 724 mmHg 32%
    09:00 +30°C° 0 mm 2 mps 724 mmHg 28%
    10:00 +33°C° 0 mm 3 mps 724 mmHg 25%
    11:00 +34°C° 0 mm 4 mps 724 mmHg 21%
    12:00 +36°C° 0 mm 5 mps 723 mmHg 18%
    13:00 +37°C° 0 mm 5 mps 723 mmHg 17%
    14:00 +39°C° 0 mm 6 mps 723 mmHg 16%
    15:00 +39°C° 0 mm 6 mps 722 mmHg 15%
    16:00 +38°C° 0 mm 6 mps 722 mmHg 16%
    17:00 +36°C° 0 mm 5 mps 722 mmHg 18%
    18:00 +35°C° 0 mm 4 mps 722 mmHg 20%
    19:00 +33°C° 0 mm 5 mps 723 mmHg 21%
    20:00 +32°C° 0 mm 5 mps 723 mmHg 22%
    21:00 +29°C° 0 mm 5 mps 723 mmHg 23%
    22:00 +28°C° 0 mm 5 mps 723 mmHg 24%
    23:00 +27°C° 0 mm 4 mps 723 mmHg 25%

    Day after tomorrow, 23 August, Friday

    Time Temperature Precipitation Wind Pressure Humidity
    00:00 +26°C° 0 mm 3 mps 724 mmHg 26%
    01:00 +25°C° 0 mm 3 mps 724 mmHg 28%
    02:00 +25°C° 0 mm 3 mps 724 mmHg 29%
    03:00 +24°C° 0 mm 2 mps 724 mmHg 30%
    04:00 +24°C° 0 mm 2 mps 724 mmHg 31%
    05:00 +24°C° 0 mm 2 mps 724 mmHg 32%
    06:00 +24°C° 0 mm 2 mps 724 mmHg 33%
    07:00 +26°C° 0 mm 2 mps 724 mmHg 31%
    08:00 +28°C° 0 mm 2 mps 724 mmHg 28%
    09:00 +30°C° 0 mm 2 mps 724 mmHg 25%
    10:00 +33°C° 0 mm 4 mps 724 mmHg 22%
    11:00 +35°C° 0 mm 6 mps 724 mmHg 20%
    12:00 +39°C° 0 mm 7 mps 724 mmHg 17%
    13:00 +39°C° 0 mm 8 mps 723 mmHg 17%
    14:00 +39°C° 0 mm 8 mps 723 mmHg 17%
    15:00 +40°C° 0 mm 8 mps 723 mmHg 17%
    16:00 +39°C° 0 mm 7 mps 723 mmHg 19%
    17:00 +36°C° 0 mm 7 mps 723 mmHg 21%
    18:00 +35°C° 0 mm 6 mps 723 mmHg 23%
    19:00 +34°C° 0 mm 6 mps 723 mmHg 25%
    20:00 +32°C° 0 mm 5 mps 724 mmHg 26%
    21:00 +30°C° 0 mm 5 mps 724 mmHg 28%
    22:00 +29°C° 0 mm 4 mps 724 mmHg 29%
    23:00 +28°C° 0 mm 4 mps 724 mmHg 29%

    24 August, Saturday

    Time Temperature Precipitation Wind Pressure Humidity
    00:00 +27°C° 0 mm 3 mps 724 mmHg 30%
    01:00 +26°C° 0 mm 3 mps 724 mmHg 32%
    02:00 +26°C° 0 mm 3 mps 724 mmHg 33%
    03:00 +25°C° 0 mm 2 mps 724 mmHg 34%
    04:00 +25°C° 0 mm 2 mps 724 mmHg 36%
    05:00 +25°C° 0 mm 2 mps 724 mmHg 38%
    06:00 +25°C° 0 mm 1 mps 724 mmHg 40%
    07:00 +27°C° 0 mm 2 mps 724 mmHg 37%
    08:00 +29°C° 0 mm 2 mps 724 mmHg 34%
    09:00 +31°C° 0 mm 2 mps 724 mmHg 31%
    10:00 +34°C° 0 mm 3 mps 724 mmHg 28%
    11:00 +36°C° 0 mm 4 mps 724 mmHg 25%
    12:00 +39°C° 0 mm 5 mps 724 mmHg 22%
    13:00 +39°C° 0 mm 6 mps 724 mmHg 21%
    14:00 +40°C° 0 mm 6 mps 723 mmHg 21%
    15:00 +40°C° 0 mm 6 mps 723 mmHg 20%
    16:00 +39°C° 0 mm 6 mps 723 mmHg 22%
    17:00 +37°C° 0 mm 5 mps 723 mmHg 23%
    18:00 +36°C° 0 mm 5 mps 723 mmHg 25%
    19:00 +34°C° 0.1 mm 5 mps 724 mmHg 27%
    20:00 +33°C° 0.1 mm 5 mps 725 mmHg 30%
    21:00 +30°C° 0.1 mm 6 mps 725 mmHg 32%
    22:00 +29°C° 0.2 mm 5 mps 725 mmHg 34%
    23:00 +28°C° 0.2 mm 4 mps 725 mmHg 36%

    25 August, Sunday

    Time Temperature Precipitation Wind Pressure Humidity
    00:00 +27°C° 0.2 mm 2 mps 725 mmHg 37%
    01:00 +27°C° 0 mm 2 mps 725 mmHg 39%
    02:00 +26°C° 0 mm 2 mps 725 mmHg 41%
    03:00 +25°C° 0 mm 2 mps 725 mmHg 43%
    04:00 +25°C° 0 mm 1 mps 725 mmHg 44%
    05:00 +25°C° 0 mm 1 mps 725 mmHg 44%
    06:00 +25°C° 0 mm 1 mps 725 mmHg 45%
    07:00 +27°C° 0.2 mm 1 mps 725 mmHg 42%
    08:00 +28°C° 0.2 mm 2 mps 725 mmHg 39%
    09:00 +30°C° 0.2 mm 2 mps 725 mmHg 36%
    10:00 +33°C° 0 mm 3 mps 725 mmHg 32%
    11:00 +34°C° 0 mm 3 mps 725 mmHg 27%
    12:00 +36°C° 0 mm 4 mps 724 mmHg 22%
    13:00 +37°C° 0 mm 4 mps 724 mmHg 21%
    14:00 +39°C° 0 mm 5 mps 724 mmHg 20%
    15:00 +39°C° 0 mm 5 mps 723 mmHg 19%
    16:00 +37°C° 0 mm 4 mps 723 mmHg 21%
    17:00 +36°C° 0 mm 4 mps 723 mmHg 23%
    18:00 +35°C° 0 mm 3 mps 723 mmHg 26%
    19:00 +34°C° 0 mm 4 mps 724 mmHg 28%
    20:00 +32°C° 0 mm 5 mps 724 mmHg 29%
    21:00 +29°C° 0 mm 6 mps 724 mmHg 31%
    22:00 +28°C° 0.2 mm 5 mps 724 mmHg 35%
    23:00 +27°C° 0.2 mm 4 mps 724 mmHg 39%

    26 August, Monday

    Time Temperature Precipitation Wind Pressure Humidity
    00:00 +26°C° 0.2 mm 3 mps 724 mmHg 43%
    01:00 +25°C° 0.3 mm 2 mps 724 mmHg 47%
    02:00 +24°C° 0.3 mm 1 mps 724 mmHg 50%
    03:00 +24°C° 0.3 mm 1 mps 724 mmHg 54%
    04:00 +24°C° 0.1 mm 1 mps 724 mmHg 56%
    05:00 +23°C° 0.1 mm 1 mps 724 mmHg 57%
    06:00 +23°C° 0.1 mm 1 mps 724 mmHg 59%
    07:00 +25°C° 0.1 mm 2 mps 724 mmHg 54%
    08:00 +26°C° 0.1 mm 2 mps 724 mmHg 49%
    09:00 +28°C° 0.1 mm 2 mps 724 mmHg 43%
    10:00 +29°C° 0 mm 2 mps 724 mmHg 39%
    11:00 +31°C° 0 mm 2 mps 724 mmHg 35%
    12:00 +32°C° 0 mm 2 mps 724 mmHg 31%
    13:00 +32°C° 0.2 mm 2 mps 723 mmHg 30%
    14:00 +34°C° 0.2 mm 2 mps 723 mmHg 29%
    15:00 +35°C° 0.2 mm 2 mps 723 mmHg 28%
    16:00 +34°C° 0.2 mm 2 mps 723 mmHg 29%
    17:00 +32°C° 0.2 mm 2 mps 723 mmHg 31%
    18:00 +31°C° 0.2 mm 2 mps 724 mmHg 32%
    19:00 +30°C° 0.2 mm 2 mps 724 mmHg 35%
    20:00 +28°C° 0.2 mm 2 mps 725 mmHg 38%
    21:00 +27°C° 0.2 mm 3 mps 726 mmHg 41%
    22:00 +26°C° 0.1 mm 3 mps 726 mmHg 42%
    23:00 +26°C° 0.1 mm 2 mps 726 mmHg 43%
    Show more